Location: Ostrava
(49.8330°N, 18.2830°E)
Time: 13:26:37
(UTC+01:00)

Iridium 39 - Visible Passes

Search period start: 30 January 2015 00:00
Search period end: 09 February 2015 00:00
Orbit: 776 x 779 km, 86.4° (Epoch: 29 January)

Date Brightness Start Highest point End Pass type
(mag) Time Alt. Az. Time Alt. Az. Time Alt. Az.
30 Jan 7.0 04:02:35 10° N 04:09:08 41° SE 04:12:50 10° SSE visible
30 Jan 7.3 05:44:01 10° NNW 05:49:50 20° WSW 05:52:07 10° SW visible
30 Jan 6.2 17:03:58 10° S 17:09:11 86° W 17:14:27 10° N visible
30 Jan 8.9 18:48:04 10° W 18:50:53 14° WNW 18:53:30 10° NW visible
31 Jan 8.5 03:29:18 10° NNE 03:38:14 12° SE 03:38:39 10° SE visible
31 Jan 8.0 05:09:58 10° NNW 05:18:51 14° SSW 05:19:35 10° SSW visible
31 Jan 8.4 18:12:43 10° SW 18:16:52 23° WNW 18:20:56 10° NNW visible
01 Feb 8.9 03:06:42 - SE 03:06:42 - SE 02:56:14 10° NNE visible
01 Feb 8.3 04:36:12 10° N 04:47:17 - S 04:36:40 13° N visible
01 Feb 7.6 17:38:10 10° SW 17:43:01 37° WNW 17:47:51 10° N visible
02 Feb 8.5 04:02:36 10° N 04:02:49 11° N 04:02:49 11° N visible
02 Feb 9.3 18:50:42 10° WNW 18:51:19 10° WNW 18:51:39 10° WNW visible
03 Feb 8.8 18:13:45 10° WSW 18:17:12 17° WNW 18:20:31 10° NNW visible
04 Feb 8.2 17:38:47 10° SW 17:43:16 28° WNW 17:47:41 10° NNW visible
06 Feb 8.9 18:15:15 10° W 18:17:37 13° WNW 18:19:44 10° NW visible
07 Feb 8.6 17:39:37 10° WSW 17:43:33 21° WNW 17:47:23 10° NNW visible
